Time,TemperatureF,DewpointF,PressureIn,WindDirection,WindDirectionDegrees,WindSpeedMPH,WindSpeedGustMPH,Humidity,HourlyPrecipIn,Conditions,Clouds,dailyrainin,SoftwareType,DateUTC
2013-02-17 00:00:00,53.2,47.2,30.13,NW,320,5.0,5.0,80,0.00,,,0.00,Wunderground v.1.15,2013-02-17 05:00:00,
2013-02-17 00:10:00,53.1,46.8,30.13,NW,323,4.0,7.0,79,0.00,,,0.00,Wunderground v.1.15,2013-02-17 05:10:00,
2013-02-17 00:15:00,53.1,46.8,30.13,NW,309,5.0,8.0,79,0.00,,,0.00,Wunderground v.1.15,2013-02-17 05:15:00,
2013-02-17 00:20:00,53.0,46.7,30.13,NW,317,5.0,5.0,79,0.00,,,0.00,Wunderground v.1.15,2013-02-17 05:20:00,
2013-02-17 00:25:00,52.8,46.5,30.13,NW,323,4.0,6.0,79,0.00,,,0.00,Wunderground v.1.15,2013-02-17 05:25:00,
2013-02-17 00:30:00,52.7,46.4,30.13,NW,324,4.0,6.0,79,0.00,,,0.00,Wunderground v.1.15,2013-02-17 05:30:00,
2013-02-17 00:35:00,52.8,46.5,30.13,NW,325,4.0,6.0,79,0.00,,,0.00,Wunderground v.1.15,2013-02-17 05:35:00,
2013-02-17 00:40:00,52.8,46.5,30.13,NW,325,4.0,4.0,79,0.00,,,0.00,Wunderground v.1.15,2013-02-17 05:40:00,
2013-02-17 00:50:00,52.8,46.5,30.13,NW,326,2.0,6.0,79,0.00,,,0.00,Wunderground v.1.15,2013-02-17 05:50:00,
2013-02-17 00:55:00,52.8,46.5,30.13,NW,325,3.0,6.0,79,0.00,,,0.00,Wunderground v.1.15,2013-02-17 05:55:00,
2013-02-17 01:00:00,52.8,46.5,30.13,NW,322,4.0,7.0,79,0.00,,,0.00,Wunderground v.1.15,2013-02-17 06:00:00,
2013-02-17 01:10:00,53.2,46.2,30.13,NNW,333,5.0,7.0,77,0.00,,,0.00,Wunderground v.1.15,2013-02-17 06:10:00,
2013-02-17 01:15:00,53.4,46.0,30.13,NNW,328,5.0,7.0,76,0.00,,,0.00,Wunderground v.1.15,2013-02-17 06:15:00,
2013-02-17 01:25:00,53.6,45.9,30.14,NNW,330,5.0,7.0,75,0.00,,,0.00,Wunderground v.1.15,2013-02-17 06:25:00,
2013-02-17 01:30:00,53.6,45.9,30.14,NW,304,5.0,11.0,75,0.00,,,0.00,Wunderground v.1.15,2013-02-17 06:30:00,
2013-02-17 01:35:00,53.6,45.5,30.13,NNW,339,6.0,11.0,74,0.00,,,0.00,Wunderground v.1.15,2013-02-17 06:35:00,
2013-02-17 01:40:00,53.7,45.2,30.14,NW,312,7.0,10.0,73,0.00,,,0.00,Wunderground v.1.15,2013-02-17 06:40:00,
2013-02-17 01:45:00,53.5,45.1,30.14,NW,324,8.0,10.0,73,0.00,,,0.00,Wunderground v.1.15,2013-02-17 06:45:00,
2013-02-17 01:55:00,52.8,44.7,30.14,NW,312,5.0,9.0,74,0.00,,,0.00,Wunderground v.1.15,2013-02-17 06:55:00,
2013-02-17 02:00:00,52.3,44.6,30.14,NNW,329,6.0,10.0,75,0.00,,,0.00,Wunderground v.1.15,2013-02-17 07:00:00,
2013-02-17 02:10:00,52.0,44.3,30.14,NNW,330,6.0,10.0,75,0.00,,,0.00,Wunderground v.1.15,2013-02-17 07:10:00,
2013-02-17 02:15:00,52.0,44.0,30.14,NNW,339,6.0,10.0,74,0.00,,,0.00,Wunderground v.1.15,2013-02-17 07:15:00,
2013-02-17 02:20:00,52.0,43.3,30.14,NNW,331,7.0,10.0,72,0.00,,,0.00,Wunderground v.1.15,2013-02-17 07:20:00,
2013-02-17 02:25:00,52.1,43.3,30.14,NW,308,7.0,10.0,72,0.00,,,0.00,Wunderground v.1.15,2013-02-17 07:25:00,
2013-02-17 02:30:00,52.0,42.5,30.14,NW,319,8.0,10.0,70,0.00,,,0.00,Wunderground v.1.15,2013-02-17 07:30:00,
2013-02-17 02:35:00,52.0,42.5,30.14,NNW,333,8.0,10.0,70,0.00,,,0.00,Wunderground v.1.15,2013-02-17 07:35:00,
2013-02-17 02:40:00,51.9,41.7,30.13,North,355,8.0,10.0,68,0.00,,,0.00,Wunderground v.1.15,2013-02-17 07:40:00,
2013-02-17 02:45:00,51.9,41.7,30.14,NNW,327,7.0,10.0,68,0.00,,,0.00,Wunderground v.1.15,2013-02-17 07:45:00,
2013-02-17 02:50:00,51.8,41.9,30.15,NW,312,7.0,13.0,69,0.00,,,0.00,Wunderground v.1.15,2013-02-17 07:50:00,
2013-02-17 03:00:00,51.3,40.7,30.15,North,360,10.0,16.0,67,0.00,,,0.00,Wunderground v.1.15,2013-02-17 08:00:00,
2013-02-17 03:10:00,50.6,40.4,30.15,NW,321,9.0,9.0,68,0.00,,,0.00,Wunderground v.1.15,2013-02-17 08:10:00,
2013-02-17 03:15:00,50.4,40.6,30.15,NNW,337,10.0,15.0,69,0.00,,,0.00,Wunderground v.1.15,2013-02-17 08:15:00,
2013-02-17 03:20:00,50.2,39.7,30.15,NNW,339,10.0,10.0,67,0.00,,,0.00,Wunderground v.1.15,2013-02-17 08:20:00,
2013-02-17 03:25:00,49.9,39.8,30.16,NNW,333,8.0,16.0,68,0.00,,,0.00,Wunderground v.1.15,2013-02-17 08:25:00,
2013-02-17 03:30:00,49.6,39.1,30.16,NW,322,8.0,16.0,67,0.00,,,0.00,Wunderground v.1.15,2013-02-17 08:30:00,
2013-02-17 03:35:00,49.3,38.0,30.16,NW,319,10.0,16.0,65,0.00,,,0.00,Wunderground v.1.15,2013-02-17 08:35:00,
2013-02-17 03:40:00,49.0,37.3,30.17,NNW,337,11.0,11.0,64,0.00,,,0.00,Wunderground v.1.15,2013-02-17 08:40:00,
2013-02-17 03:45:00,48.7,37.1,30.17,NW,313,10.0,16.0,64,0.00,,,0.00,Wunderground v.1.15,2013-02-17 08:45:00,
2013-02-17 03:50:00,48.5,36.5,30.17,NNW,338,10.0,16.0,63,0.00,,,0.00,Wunderground v.1.15,2013-02-17 08:50:00,
2013-02-17 03:55:00,48.3,36.3,30.17,NW,310,9.0,16.0,63,0.00,,,0.00,Wunderground v.1.15,2013-02-17 08:55:00,
2013-02-17 04:00:00,48.0,36.0,30.18,NNW,342,8.0,10.0,63,0.00,,,0.00,Wunderground v.1.15,2013-02-17 09:00:00,
2013-02-17 04:10:00,47.5,34.7,30.18,NNE,32,9.0,9.0,61,0.00,,,0.00,Wunderground v.1.15,2013-02-17 09:10:00,
2013-02-17 04:15:00,47.3,33.7,30.18,NNW,329,8.0,9.0,59,0.00,,,0.00,Wunderground v.1.15,2013-02-17 09:15:00,
2013-02-17 04:20:00,47.2,33.6,30.19,NNE,17,9.0,9.0,59,0.00,,,0.00,Wunderground v.1.15,2013-02-17 09:20:00,
2013-02-17 04:25:00,46.9,33.7,30.18,North,360,8.0,9.0,60,0.00,,,0.00,Wunderground v.1.15,2013-02-17 09:25:00,
2013-02-17 04:30:00,46.7,33.1,30.19,NNW,327,7.0,7.0,59,0.00,,,0.00,Wunderground v.1.15,2013-02-17 09:30:00,
2013-02-17 04:35:00,46.5,32.9,30.19,North,11,7.0,8.0,59,0.00,,,0.00,Wunderground v.1.15,2013-02-17 09:35:00,
2013-02-17 04:40:00,46.3,32.7,30.20,NNW,346,8.0,9.0,59,0.00,,,0.00,Wunderground v.1.15,2013-02-17 09:40:00,
2013-02-17 04:45:00,46.1,32.1,30.20,NNW,342,8.0,9.0,58,0.00,,,0.00,Wunderground v.1.15,2013-02-17 09:45:00,
2013-02-17 04:50:00,45.9,32.8,30.20,NNW,337,8.0,9.0,60,0.00,,,0.00,Wunderground v.1.15,2013-02-17 09:50:00,
2013-02-17 05:00:00,45.6,31.2,30.20,North,350,7.0,7.0,57,0.00,,,0.00,Wunderground v.1.15,2013-02-17 10:00:00,
2013-02-17 05:10:00,45.2,29.5,30.20,NW,323,7.0,9.0,54,0.00,,,0.00,Wunderground v.1.15,2013-02-17 10:10:00,
2013-02-17 05:20:00,45.0,28.4,30.21,WNW,301,7.0,7.0,52,0.00,,,0.00,Wunderground v.1.15,2013-02-17 10:20:00,
2013-02-17 05:25:00,44.9,28.8,30.21,NNW,328,7.0,9.0,53,0.00,,,0.00,Wunderground v.1.15,2013-02-17 10:25:00,
2013-02-17 05:30:00,44.7,28.6,30.22,West,261,7.0,7.0,53,0.00,,,0.00,Wunderground v.1.15,2013-02-17 10:30:00,
2013-02-17 05:35:00,44.5,28.4,30.22,NNW,336,6.0,9.0,53,0.00,,,0.00,Wunderground v.1.15,2013-02-17 10:35:00,
2013-02-17 05:45:00,44.3,28.2,30.22,NW,313,7.0,15.0,53,0.00,,,0.00,Wunderground v.1.15,2013-02-17 10:45:00,
2013-02-17 05:50:00,44.3,27.8,30.23,NW,312,8.0,8.0,52,0.00,,,0.00,Wunderground v.1.15,2013-02-17 10:50:00,
2013-02-17 05:55:00,44.1,27.6,30.23,NW,321,8.0,9.0,52,0.00,,,0.00,Wunderground v.1.15,2013-02-17 10:55:00,
2013-02-17 06:00:00,43.9,27.4,30.23,NNW,342,8.0,12.0,52,0.00,,,0.00,Wunderground v.1.15,2013-02-17 11:00:00,
2013-02-17 06:10:00,43.6,27.6,30.23,NNW,327,7.0,7.0,53,0.00,,,0.00,Wunderground v.1.15,2013-02-17 11:10:00,
2013-02-17 06:20:00,43.3,26.8,30.24,NW,323,6.0,6.0,52,0.00,,,0.00,Wunderground v.1.15,2013-02-17 11:20:00,
2013-02-17 06:25:00,43.0,26.6,30.24,NNW,333,6.0,12.0,52,0.00,,,0.00,Wunderground v.1.15,2013-02-17 11:25:00,
2013-02-17 06:30:00,42.8,26.8,30.24,NNW,338,6.0,12.0,53,0.00,,,0.00,Wunderground v.1.15,2013-02-17 11:30:00,
2013-02-17 06:35:00,42.7,26.7,30.24,North,360,6.0,12.0,53,0.00,,,0.00,Wunderground v.1.15,2013-02-17 11:35:00,
2013-02-17 06:40:00,42.6,26.6,30.25,NNW,347,6.0,12.0,53,0.00,,,0.00,Wunderground v.1.15,2013-02-17 11:40:00,
2013-02-17 06:50:00,42.3,26.4,30.25,NNW,342,6.0,12.0,53,0.00,,,0.00,Wunderground v.1.15,2013-02-17 11:50:00,
2013-02-17 06:55:00,42.3,26.8,30.25,NW,325,6.0,12.0,54,0.00,,,0.00,Wunderground v.1.15,2013-02-17 11:55:00,
2013-02-17 07:00:00,42.2,26.3,30.25,NW,323,6.0,6.0,53,0.00,,,0.00,Wunderground v.1.15,2013-02-17 12:00:00,
2013-02-17 07:10:00,42.1,26.2,30.26,NW,305,6.0,8.0,53,0.00,,,0.00,Wunderground v.1.15,2013-02-17 12:10:00,
2013-02-17 07:15:00,42.1,26.6,30.26,NE,34,6.0,8.0,54,0.00,,,0.00,Wunderground v.1.15,2013-02-17 12:15:00,
2013-02-17 07:25:00,42.2,27.2,30.26,NNW,342,6.0,8.0,55,0.00,,,0.00,Wunderground v.1.15,2013-02-17 12:25:00,
2013-02-17 07:30:00,42.2,26.3,30.26,NNE,19,6.0,8.0,53,0.00,,,0.00,Wunderground v.1.15,2013-02-17 12:30:00,
2013-02-17 07:40:00,42.4,26.0,30.27,NW,317,6.0,8.0,52,0.00,,,0.00,Wunderground v.1.15,2013-02-17 12:40:00,
2013-02-17 07:45:00,42.6,26.6,30.27,NNW,344,6.0,8.0,53,0.00,,,0.00,Wunderground v.1.15,2013-02-17 12:45:00,
2013-02-17 07:50:00,42.8,26.4,30.27,NNW,328,6.0,8.0,52,0.00,,,0.00,Wunderground v.1.15,2013-02-17 12:50:00,
2013-02-17 08:00:00,43.3,26.8,30.28,NNW,332,5.0,8.0,52,0.00,,,0.00,Wunderground v.1.15,2013-02-17 13:00:00,
2013-02-17 08:10:00,43.9,26.4,30.29,NNW,336,5.0,8.0,50,0.00,,,0.00,Wunderground v.1.15,2013-02-17 13:10:00,
2013-02-17 08:15:00,44.1,26.1,30.29,NNW,348,5.0,8.0,49,0.00,,,0.00,Wunderground v.1.15,2013-02-17 13:15:00,
2013-02-17 08:20:00,44.5,27.0,30.29,NW,314,5.0,8.0,50,0.00,,,0.00,Wunderground v.1.15,2013-02-17 13:20:00,
2013-02-17 08:30:00,44.8,25.8,30.29,North,5,5.0,5.0,47,0.00,,,0.00,Wunderground v.1.15,2013-02-17 13:30:00,
2013-02-17 08:40:00,45.3,25.7,30.30,NNW,327,6.0,8.0,46,0.00,,,0.00,Wunderground v.1.15,2013-02-17 13:40:00,
2013-02-17 08:45:00,45.7,27.1,30.30,NNW,329,6.0,8.0,48,0.00,,,0.00,Wunderground v.1.15,2013-02-17 13:45:00,
2013-02-17 08:50:00,45.7,25.0,30.30,NW,311,7.0,11.0,44,0.00,,,0.00,Wunderground v.1.15,2013-02-17 13:50:00,
2013-02-17 08:55:00,45.8,25.1,30.30,NNW,336,8.0,11.0,44,0.00,,,0.00,Wunderground v.1.15,2013-02-17 13:55:00,
2013-02-17 09:00:00,46.3,25.0,30.30,NNW,327,8.0,8.0,43,0.00,,,0.00,Wunderground v.1.15,2013-02-17 14:00:00,
2013-02-17 09:10:00,46.8,24.3,30.31,NW,326,8.0,8.0,41,0.00,,,0.00,Wunderground v.1.15,2013-02-17 14:10:00,
2013-02-17 09:15:00,47.0,23.9,30.31,North,360,8.0,15.0,40,0.00,,,0.00,Wunderground v.1.15,2013-02-17 14:15:00,
2013-02-17 09:20:00,47.3,22.9,30.31,NW,326,8.0,15.0,38,0.00,,,0.00,Wunderground v.1.15,2013-02-17 14:20:00,
2013-02-17 09:25:00,47.1,22.8,30.32,NW,309,9.0,15.0,38,0.00,,,0.00,Wunderground v.1.15,2013-02-17 14:25:00,
2013-02-17 09:30:00,47.2,22.2,30.32,North,5,10.0,10.0,37,0.00,,,0.00,Wunderground v.1.15,2013-02-17 14:30:00,
2013-02-17 09:40:00,47.7,23.3,30.32,NW,319,10.0,10.0,38,0.00,,,0.00,Wunderground v.1.15,2013-02-17 14:40:00,
2013-02-17 09:45:00,47.6,23.2,30.32,NW,326,11.0,13.0,38,0.00,,,0.00,Wunderground v.1.15,2013-02-17 14:45:00,
2013-02-17 09:50:00,47.6,23.2,30.32,NNW,338,11.0,15.0,38,0.00,,,0.00,Wunderground v.1.15,2013-02-17 14:50:00,
2013-02-17 09:55:00,47.9,23.5,30.32,NNW,342,10.0,15.0,38,0.00,,,0.00,Wunderground v.1.15,2013-02-17 14:55:00,
2013-02-17 10:00:00,48.2,24.4,30.32,NNW,340,9.0,9.0,39,0.00,,,0.00,Wunderground v.1.15,2013-02-17 15:00:00,
2013-02-17 10:10:00,48.3,24.5,30.32,NNW,327,9.0,13.0,39,0.00,,,0.00,Wunderground v.1.15,2013-02-17 15:10:00,
2013-02-17 10:15:00,48.5,24.6,30.32,NNW,348,10.0,13.0,39,0.00,,,0.00,Wunderground v.1.15,2013-02-17 15:15:00,
2013-02-17 10:20:00,49.2,25.9,30.32,NNW,341,8.0,13.0,40,0.00,,,0.00,Wunderground v.1.15,2013-02-17 15:20:00,
2013-02-17 10:25:00,49.2,25.9,30.32,NNE,14,8.0,13.0,40,0.00,,,0.00,Wunderground v.1.15,2013-02-17 15:25:00,
2013-02-17 10:30:00,49.3,26.0,30.33,NW,311,9.0,9.0,40,0.00,,,0.00,Wunderground v.1.15,2013-02-17 15:30:00,
2013-02-17 10:40:00,49.1,25.2,30.33,North,355,9.0,9.0,39,0.00,,,0.00,Wunderground v.1.15,2013-02-17 15:40:00,
2013-02-17 10:45:00,49.5,26.7,30.33,NNW,329,9.0,13.0,41,0.00,,,0.00,Wunderground v.1.15,2013-02-17 15:45:00,
2013-02-17 10:50:00,50.1,25.5,30.33,NNW,342,9.0,9.0,38,0.00,,,0.00,Wunderground v.1.15,2013-02-17 15:50:00,
2013-02-17 11:01:00,50.7,26.6,30.32,NW,316,6.0,11.0,39,0.00,,,0.00,Wunderground v.1.15,2013-02-17 16:01:00,
2013-02-17 11:10:00,50.4,25.7,30.32,NNW,339,9.0,11.0,38,0.00,,,0.00,Wunderground v.1.15,2013-02-17 16:10:00,
2013-02-17 11:20:00,50.7,27.8,30.32,North,355,10.0,14.0,41,0.00,,,0.00,Wunderground v.1.15,2013-02-17 16:20:00,
2013-02-17 11:25:00,51.4,26.6,30.32,NNW,346,8.0,8.0,38,0.00,,,0.00,Wunderground v.1.15,2013-02-17 16:25:00,
2013-02-17 11:30:00,51.3,26.5,30.32,NNE,17,8.0,11.0,38,0.00,,,0.00,Wunderground v.1.15,2013-02-17 16:30:00,
2013-02-17 11:35:00,51.2,26.4,30.32,NNE,13,8.0,8.0,38,0.00,,,0.00,Wunderground v.1.15,2013-02-17 16:35:00,
2013-02-17 11:40:00,51.6,26.8,30.32,NW,311,8.0,11.0,38,0.00,,,0.00,Wunderground v.1.15,2013-02-17 16:40:00,
2013-02-17 11:50:00,52.2,27.3,30.32,NNW,342,7.0,11.0,38,0.00,,,0.00,Wunderground v.1.15,2013-02-17 16:50:00,
2013-02-17 11:55:00,52.1,25.9,30.32,NW,319,8.0,13.0,36,0.00,,,0.00,Wunderground v.1.15,2013-02-17 16:55:00,
2013-02-17 12:00:00,52.5,26.9,30.32,NW,318,8.0,13.0,37,0.00,,,0.00,Wunderground v.1.15,2013-02-17 17:00:00,
2013-02-17 12:10:00,52.8,25.9,30.32,NW,311,7.0,8.0,35,0.00,,,0.00,Wunderground v.1.15,2013-02-17 17:10:00,
2013-02-17 12:15:00,52.7,25.8,30.32,NW,319,8.0,8.0,35,0.00,,,0.00,Wunderground v.1.15,2013-02-17 17:15:00,
2013-02-17 12:25:00,53.8,27.4,30.31,NNW,333,6.0,9.0,36,0.00,,,0.00,Wunderground v.1.15,2013-02-17 17:25:00,
2013-02-17 12:30:00,54.0,25.5,30.31,NW,326,5.0,5.0,33,0.00,,,0.00,Wunderground v.1.15,2013-02-17 17:30:00,
2013-02-17 12:35:00,53.8,26.1,30.31,NNW,347,6.0,6.0,34,0.00,,,0.00,Wunderground v.1.15,2013-02-17 17:35:00,
2013-02-17 12:45:00,54.7,25.4,30.31,WNW,297,5.0,13.0,32,0.00,,,0.00,Wunderground v.1.15,2013-02-17 17:45:00,
2013-02-17 12:50:00,54.0,24.8,30.31,NW,310,8.0,8.0,32,0.00,,,0.00,Wunderground v.1.15,2013-02-17 17:50:00,
2013-02-17 13:00:00,54.1,26.3,30.30,NNW,331,9.0,15.0,34,0.00,,,0.00,Wunderground v.1.15,2013-02-17 18:00:00,
2013-02-17 13:10:00,54.5,26.0,30.30,NNW,329,7.0,15.0,33,0.00,,,0.00,Wunderground v.1.15,2013-02-17 18:10:00,
2013-02-17 13:15:00,54.6,25.3,30.30,NW,304,7.0,15.0,32,0.00,,,0.00,Wunderground v.1.15,2013-02-17 18:15:00,
2013-02-17 13:20:00,54.8,25.5,30.29,WNW,302,8.0,15.0,32,0.00,,,0.00,Wunderground v.1.15,2013-02-17 18:20:00,
2013-02-17 13:25:00,55.5,26.1,30.29,NNW,331,7.0,15.0,32,0.00,,,0.00,Wunderground v.1.15,2013-02-17 18:25:00,
2013-02-17 13:35:00,56.3,26.0,30.29,North,360,5.0,9.0,31,0.00,,,0.00,Wunderground v.1.15,2013-02-17 18:35:00,
2013-02-17 13:40:00,55.5,26.8,30.29,NW,326,7.0,7.0,33,0.00,,,0.00,Wunderground v.1.15,2013-02-17 18:40:00,
2013-02-17 13:45:00,56.4,25.3,30.29,NNW,331,6.0,15.0,30,0.00,,,0.00,Wunderground v.1.15,2013-02-17 18:45:00,
2013-02-17 13:50:00,55.8,25.6,30.29,NW,323,5.0,15.0,31,0.00,,,0.00,Wunderground v.1.15,2013-02-17 18:50:00,
2013-02-17 13:55:00,56.0,25.8,30.28,NNW,346,7.0,15.0,31,0.00,,,0.00,Wunderground v.1.15,2013-02-17 18:55:00,
2013-02-17 14:00:00,56.1,23.4,30.28,WNW,283,6.0,9.0,28,0.00,,,0.00,Wunderground v.1.15,2013-02-17 19:00:00,
2013-02-17 14:10:00,56.1,24.2,30.28,NW,325,9.0,9.0,29,0.00,,,0.00,Wunderground v.1.15,2013-02-17 19:10:00,
2013-02-17 14:15:00,56.4,24.5,30.28,NW,320,5.0,9.0,29,0.00,,,0.00,Wunderground v.1.15,2013-02-17 19:15:00,
2013-02-17 14:20:00,57.3,25.3,30.27,North,355,3.0,6.0,29,0.00,,,0.00,Wunderground v.1.15,2013-02-17 19:20:00,
2013-02-17 14:25:00,56.8,24.8,30.27,NW,319,5.0,7.0,29,0.00,,,0.00,Wunderground v.1.15,2013-02-17 19:25:00,
2013-02-17 14:35:00,57.3,24.4,30.27,NNW,334,6.0,7.0,28,0.00,,,0.00,Wunderground v.1.15,2013-02-17 19:35:00,
2013-02-17 14:40:00,57.5,24.6,30.27,NNE,21,4.0,4.0,28,0.00,,,0.00,Wunderground v.1.15,2013-02-17 19:40:00,
2013-02-17 14:45:00,57.7,23.9,30.27,NW,324,4.0,6.0,27,0.00,,,0.00,Wunderground v.1.15,2013-02-17 19:45:00,
2013-02-17 14:50:00,57.9,25.0,30.27,NW,321,4.0,12.0,28,0.00,,,0.00,Wunderground v.1.15,2013-02-17 19:50:00,
2013-02-17 14:55:00,57.4,25.4,30.27,North,360,5.0,12.0,29,0.00,,,0.00,Wunderground v.1.15,2013-02-17 19:55:00,
2013-02-17 15:00:00,57.9,25.0,30.27,NW,323,5.0,5.0,28,0.00,,,0.00,Wunderground v.1.15,2013-02-17 20:00:00,
2013-02-17 15:10:00,58.0,23.3,30.27,NW,319,4.0,11.0,26,0.00,,,0.00,Wunderground v.1.15,2013-02-17 20:10:00,
2013-02-17 15:15:00,57.8,23.1,30.27,NW,315,5.0,11.0,26,0.00,,,0.00,Wunderground v.1.15,2013-02-17 20:15:00,
2013-02-17 15:20:00,58.1,26.8,30.27,NNW,338,5.0,5.0,30,0.00,,,0.00,Wunderground v.1.15,2013-02-17 20:20:00,
2013-02-17 15:25:00,58.7,23.9,30.27,NNW,327,3.0,11.0,26,0.00,,,0.00,Wunderground v.1.15,2013-02-17 20:25:00,
2013-02-17 15:30:00,58.4,24.5,30.27,NNW,342,3.0,11.0,27,0.00,,,0.00,Wunderground v.1.15,2013-02-17 20:30:00,
2013-02-17 15:35:00,58.7,23.9,30.27,NNW,347,4.0,11.0,26,0.00,,,0.00,Wunderground v.1.15,2013-02-17 20:35:00,
2013-02-17 15:45:00,59.0,24.1,30.27,NW,316,3.0,11.0,26,0.00,,,0.00,Wunderground v.1.15,2013-02-17 20:45:00,
2013-02-17 15:50:00,58.8,22.0,30.27,NNW,339,3.0,11.0,24,0.00,,,0.00,Wunderground v.1.15,2013-02-17 20:50:00,
2013-02-17 15:55:00,58.3,23.5,30.27,NNW,331,5.0,11.0,26,0.00,,,0.00,Wunderground v.1.15,2013-02-17 20:55:00,
2013-02-17 16:00:00,59.0,24.1,30.27,NNW,342,3.0,3.0,26,0.00,,,0.00,Wunderground v.1.15,2013-02-17 21:00:00,
2013-02-17 16:10:00,58.7,23.9,30.27,NW,322,3.0,7.0,26,0.00,,,0.00,Wunderground v.1.15,2013-02-17 21:10:00,
2013-02-17 16:20:00,58.6,22.8,30.27,NW,313,3.0,8.0,25,0.00,,,0.00,Wunderground v.1.15,2013-02-17 21:20:00,
2013-02-17 16:25:00,58.2,22.5,30.27,NNW,327,5.0,8.0,25,0.00,,,0.00,Wunderground v.1.15,2013-02-17 21:25:00,
2013-02-17 16:30:00,58.6,22.8,30.27,North,360,4.0,4.0,25,0.00,,,0.00,Wunderground v.1.15,2013-02-17 21:30:00,
2013-02-17 16:35:00,59.3,23.4,30.27,NNW,346,2.0,6.0,25,0.00,,,0.00,Wunderground v.1.15,2013-02-17 21:35:00,
2013-02-17 16:40:00,59.6,23.7,30.27,NNW,346,2.0,2.0,25,0.00,,,0.00,Wunderground v.1.15,2013-02-17 21:40:00,
2013-02-17 16:45:00,59.2,21.4,30.27,NW,305,3.0,9.0,23,0.00,,,0.00,Wunderground v.1.15,2013-02-17 21:45:00,
2013-02-17 16:55:00,59.1,23.3,30.27,NW,316,3.0,7.0,25,0.00,,,0.00,Wunderground v.1.15,2013-02-17 21:55:00,
2013-02-17 17:00:00,59.1,22.3,30.28,NW,324,2.0,10.0,24,0.00,,,0.00,Wunderground v.1.15,2013-02-17 22:00:00,
2013-02-17 17:10:00,58.6,22.8,30.28,NNW,339,4.0,10.0,25,0.00,,,0.00,Wunderground v.1.15,2013-02-17 22:10:00,
2013-02-17 17:15:00,58.1,22.4,30.28,NNW,339,4.0,10.0,25,0.00,,,0.00,Wunderground v.1.15,2013-02-17 22:15:00,
2013-02-17 17:20:00,58.1,22.4,30.28,NNW,339,4.0,4.0,25,0.00,,,0.00,Wunderground v.1.15,2013-02-17 22:20:00,
2013-02-17 17:25:00,58.9,23.1,30.27,NNW,330,2.0,10.0,25,0.00,,,0.00,Wunderground v.1.15,2013-02-17 22:25:00,
2013-02-17 17:35:00,57.9,21.3,30.28,NNW,335,2.0,10.0,24,0.00,,,0.00,Wunderground v.1.15,2013-02-17 22:35:00,
2013-02-17 17:40:00,57.7,21.1,30.28,NNW,348,3.0,3.0,24,0.00,,,0.00,Wunderground v.1.15,2013-02-17 22:40:00,
2013-02-17 17:45:00,57.3,21.7,30.28,NNW,329,3.0,10.0,25,0.00,,,0.00,Wunderground v.1.15,2013-02-17 22:45:00,
2013-02-17 17:50:00,57.2,22.6,30.28,North,11,2.0,2.0,26,0.00,,,0.00,Wunderground v.1.15,2013-02-17 22:50:00,
2013-02-17 18:00:00,57.2,24.3,30.28,North,351,1.0,1.0,28,0.00,,,0.00,Wunderground v.1.15,2013-02-17 23:00:00,
2013-02-17 18:10:00,56.6,23.8,30.28,North,360,0.0,1.0,28,0.00,,,0.00,Wunderground v.1.15,2013-02-17 23:10:00,
2013-02-17 18:15:00,56.0,24.2,30.29,North,5,0.0,1.0,29,0.00,,,0.00,Wunderground v.1.15,2013-02-17 23:15:00,
2013-02-17 18:20:00,55.4,25.2,30.29,North,5,0.0,1.0,31,0.00,,,0.00,Wunderground v.1.15,2013-02-17 23:20:00,
2013-02-17 18:25:00,54.9,25.6,30.29,North,5,0.0,1.0,32,0.00,,,0.00,Wunderground v.1.15,2013-02-17 23:25:00,
2013-02-17 18:35:00,54.3,26.5,30.29,North,5,0.0,1.0,34,0.00,,,0.00,Wunderground v.1.15,2013-02-17 23:35:00,
2013-02-17 18:40:00,53.9,26.1,30.29,North,5,0.0,1.0,34,0.00,,,0.00,Wunderground v.1.15,2013-02-17 23:40:00,
2013-02-17 18:45:00,53.7,27.4,30.30,North,5,0.0,1.0,36,0.00,,,0.00,Wunderground v.1.15,2013-02-17 23:45:00,
2013-02-17 18:50:00,53.6,26.6,30.30,North,5,0.0,1.0,35,0.00,,,0.00,Wunderground v.1.15,2013-02-17 23:50:00,
2013-02-17 18:55:00,53.5,27.2,30.30,North,5,0.0,1.0,36,0.00,,,0.00,Wunderground v.1.15,2013-02-17 23:55:00,
2013-02-17 19:00:00,53.3,27.7,30.30,North,5,0.0,0.0,37,0.00,,,0.00,Wunderground v.1.15,2013-02-18 00:00:00,
2013-02-17 19:10:00,53.0,26.7,30.30,North,5,0.0,0.0,36,0.00,,,0.00,Wunderground v.1.15,2013-02-18 00:10:00,
2013-02-17 19:15:00,52.8,27.2,30.30,North,5,0.0,0.0,37,0.00,,,0.00,Wunderground v.1.15,2013-02-18 00:15:00,
2013-02-17 19:20:00,52.6,26.4,30.30,North,5,0.0,0.0,36,0.00,,,0.00,Wunderground v.1.15,2013-02-18 00:20:00,
2013-02-17 19:25:00,52.4,26.2,30.31,North,5,0.0,0.0,36,0.00,,,0.00,Wunderground v.1.15,2013-02-18 00:25:00,
2013-02-17 19:30:00,51.4,31.3,30.31,North,5,0.0,0.0,46,0.00,,,0.00,Wunderground v.1.15,2013-02-18 00:30:00,
2013-02-17 19:35:00,50.6,30.6,30.31,North,5,0.0,0.0,46,0.00,,,0.00,Wunderground v.1.15,2013-02-18 00:35:00,
2013-02-17 19:45:00,50.0,30.5,30.31,North,5,0.0,0.0,47,0.00,,,0.00,Wunderground v.1.15,2013-02-18 00:45:00,
2013-02-17 19:50:00,49.9,31.0,30.31,North,5,0.0,0.0,48,0.00,,,0.00,Wunderground v.1.15,2013-02-18 00:50:00,
2013-02-17 19:55:00,49.7,32.8,30.31,North,5,0.0,0.0,52,0.00,,,0.00,Wunderground v.1.15,2013-02-18 00:55:00,
2013-02-17 20:00:00,49.4,32.0,30.31,North,5,0.0,0.0,51,0.00,,,0.00,Wunderground v.1.15,2013-02-18 01:00:00,
2013-02-17 20:10:00,48.6,33.1,30.32,North,5,0.0,0.0,55,0.00,,,0.00,Wunderground v.1.15,2013-02-18 01:10:00,
2013-02-17 20:20:00,47.9,32.5,30.32,North,5,0.0,0.0,55,0.00,,,0.00,Wunderground v.1.15,2013-02-18 01:20:00,
2013-02-17 20:25:00,47.6,32.7,30.32,North,5,0.0,0.0,56,0.00,,,0.00,Wunderground v.1.15,2013-02-18 01:25:00,
2013-02-17 20:30:00,47.4,32.9,30.32,North,5,0.0,0.0,57,0.00,,,0.00,Wunderground v.1.15,2013-02-18 01:30:00,
2013-02-17 20:35:00,47.3,33.7,30.32,North,5,0.0,0.0,59,0.00,,,0.00,Wunderground v.1.15,2013-02-18 01:35:00,
2013-02-17 20:40:00,47.1,33.1,30.32,North,5,0.0,0.0,58,0.00,,,0.00,Wunderground v.1.15,2013-02-18 01:40:00,
2013-02-17 20:50:00,46.9,33.7,30.32,North,5,0.0,0.0,60,0.00,,,0.00,Wunderground v.1.15,2013-02-18 01:50:00,
2013-02-17 20:55:00,47.0,34.6,30.32,North,5,0.0,0.0,62,0.00,,,0.00,Wunderground v.1.15,2013-02-18 01:55:00,
2013-02-17 21:00:00,46.9,35.4,30.32,North,5,0.0,0.0,64,0.00,,,0.00,Wunderground v.1.15,2013-02-18 02:00:00,
2013-02-17 21:10:00,46.8,34.0,30.32,North,5,0.0,0.0,61,0.00,,,0.00,Wunderground v.1.15,2013-02-18 02:10:00,
2013-02-17 21:15:00,46.8,33.6,30.33,North,5,0.0,0.0,60,0.00,,,0.00,Wunderground v.1.15,2013-02-18 02:15:00,
2013-02-17 21:25:00,46.8,33.6,30.33,North,5,0.0,0.0,60,0.00,,,0.00,Wunderground v.1.15,2013-02-18 02:25:00,
2013-02-17 21:30:00,46.6,33.9,30.33,North,5,0.0,0.0,61,0.00,,,0.00,Wunderground v.1.15,2013-02-18 02:30:00,
2013-02-17 21:35:00,46.4,33.7,30.33,North,5,0.0,0.0,61,0.00,,,0.00,Wunderground v.1.15,2013-02-18 02:35:00,
2013-02-17 21:40:00,46.1,33.8,30.34,North,5,0.0,0.0,62,0.00,,,0.00,Wunderground v.1.15,2013-02-18 02:40:00,
2013-02-17 21:45:00,46.0,33.7,30.34,North,5,0.0,0.0,62,0.00,,,0.00,Wunderground v.1.15,2013-02-18 02:45:00,
2013-02-17 21:55:00,45.7,33.8,30.34,North,5,0.0,0.0,63,0.00,,,0.00,Wunderground v.1.15,2013-02-18 02:55:00,
2013-02-17 22:00:00,45.7,33.4,30.34,North,5,0.0,0.0,62,0.00,,,0.00,Wunderground v.1.15,2013-02-18 03:00:00,
2013-02-17 22:10:00,46.1,33.4,30.34,North,5,0.0,0.0,61,0.00,,,0.00,Wunderground v.1.15,2013-02-18 03:10:00,
2013-02-17 22:20:00,45.7,33.0,30.34,North,5,0.0,0.0,61,0.00,,,0.00,Wunderground v.1.15,2013-02-18 03:20:00,
2013-02-17 22:25:00,45.5,32.4,30.35,North,5,0.0,0.0,60,0.00,,,0.00,Wunderground v.1.15,2013-02-18 03:25:00,
2013-02-17 22:35:00,45.0,32.8,30.35,North,5,0.0,0.0,62,0.00,,,0.00,Wunderground v.1.15,2013-02-18 03:35:00,
2013-02-17 22:40:00,44.7,32.9,30.35,North,5,0.0,0.0,63,0.00,,,0.00,Wunderground v.1.15,2013-02-18 03:40:00,
2013-02-17 22:45:00,44.4,32.2,30.35,North,5,0.0,0.0,62,0.00,,,0.00,Wunderground v.1.15,2013-02-18 03:45:00,
2013-02-17 22:50:00,44.0,32.6,30.35,North,5,0.0,0.0,64,0.00,,,0.00,Wunderground v.1.15,2013-02-18 03:50:00,
2013-02-17 22:55:00,43.5,32.9,30.35,North,5,0.0,0.0,66,0.00,,,0.00,Wunderground v.1.15,2013-02-18 03:55:00,
2013-02-17 23:01:00,43.0,33.2,30.36,North,5,0.0,0.0,68,0.00,,,0.00,Wunderground v.1.15,2013-02-18 04:01:00,
2013-02-17 23:10:00,42.4,33.7,30.36,North,5,0.0,0.0,71,0.00,,,0.00,Wunderground v.1.15,2013-02-18 04:10:00,
2013-02-17 23:15:00,42.3,33.9,30.36,North,5,0.0,0.0,72,0.00,,,0.00,Wunderground v.1.15,2013-02-18 04:15:00,
2013-02-17 23:20:00,42.3,34.3,30.35,North,5,0.0,0.0,73,0.00,,,0.00,Wunderground v.1.15,2013-02-18 04:20:00,
2013-02-17 23:30:00,42.2,34.2,30.35,North,5,0.0,0.0,73,0.00,,,0.00,Wunderground v.1.15,2013-02-18 04:30:00,
2013-02-17 23:40:00,41.9,34.2,30.36,North,5,0.0,0.0,74,0.00,,,0.00,Wunderground v.1.15,2013-02-18 04:40:00,
2013-02-17 23:45:00,41.9,34.2,30.36,North,5,0.0,0.0,74,0.00,,,0.00,Wunderground v.1.15,2013-02-18 04:45:00,
2013-02-17 23:50:00,41.8,34.5,30.35,North,5,0.0,0.0,75,0.00,,,0.00,Wunderground v.1.15,2013-02-18 04:50:00,
2013-02-17 23:55:00,41.8,34.1,30.35,North,5,0.0,0.0,74,0.00,,,0.00,Wunderground v.1.15,2013-02-18 04:55:00,